Regional Weather Roundup
Issued by NWS

Home | Current Version | Previous Version | Graphics & Text | Print | Product List | Glossary On
Versions: 1 2 3 4 5 6 7 8 9 10 11 12 13 14 15 16 17 18 19 20 21 22 23 24 25 26 27 28 29
000
ASUS45 KGTF 170810
RWRMT
MONTANA HOURLY WEATHER ROUNDUP
NATIONAL WEATHER SERVICE GREAT FALLS MT
200 AM MDT FRI APR 17 2015

NOTE: "FAIR" INDICATES FEW OR NO CLOUDS BELOW 12000 FEET WITH NO
SIGNIFICANT WEATHER AND/OR OBSTRUCTIONS TO VISIBILITY.

MTZ001>007-043-170900-
WEST OF THE DIVIDE

CITY           SKY/WX    TMP DP  RH WIND       PRES   REMARKS
KALISPELL      SUNNY     34  29  82 VRB3      30.22R
MISSOULA       CLEAR     38  27  64 CALM      30.25R
BUTTE          CLEAR     29  23  78 CALM      30.26S
DEER LODGE       N/A     32  21  64 CALM      30.29R
EUREKA           N/A     37  28  70 CALM      30.24R
HAMILTON         N/A     37  27  65 S2        30.24R
LIBBY            N/A     36  28  75 CALM      30.26R
$$

MTZ008-052>055-170900-
SOUTHWEST MONTANA

CITY           SKY/WX    TMP DP  RH WIND       PRES   REMARKS
BOZEMAN        CLEAR     28  24  85 SE9       30.25S WCI  19
DILLON         CLEAR     34  25  69 S7        30.24S WCI  28
$$

MTZ009-010-012-014-046-048-049-054-170900-
EAST SLOPES AND CENTRAL MONTANA

CITY           SKY/WX    TMP DP  RH WIND       PRES   REMARKS
CUT BANK       CLEAR     39  27  62 W14       30.17R WCI  31
GREAT FALLS    CLEAR     39  26  59 SW12      30.18R WCI  32
HELENA         CLEAR     38  25  59 W9        30.23R WCI  31
$$

MTZ011-013-016-021-045-047-050-051-170900-
NORTH CENTRAL MONTANA

CITY           SKY/WX    TMP DP  RH WIND       PRES   REMARKS
HAVRE          CLEAR     39  28  64 S3        30.13R
LEWISTOWN      CLEAR     32  25  75 SE6       30.18S WCI  26
FORT BENTON      N/A     41  27  56 SW3       30.18R
$$

MTZ017>020-022>042-056>058-061-062-170900-
EASTERN PLAINS

CITY           SKY/WX    TMP DP  RH WIND       PRES   REMARKS
BAKER          CLEAR     32  25  75 N3        30.21F
BILLINGS       CLEAR     39  29  67 SW12      30.20F WCI  32
GLASGOW        CLEAR     36  21  54 SE3       30.16R
JORDAN           N/A     42  25  50 W7        30.18S
LIVINGSTON     CLEAR     32  25  75 NW10      30.23S WCI  24
MILES CITY     CLEAR     36  19  50 SE6       30.20F WCI  31
SIDNEY         CLEAR     30  19  64 CALM      30.19R
WOLF POINT     PTCLDY    32  21  64 CALM      30.18R
BIG TIMBER       N/A     36  27  69 W9        30.23S WCI  29
FORSYTH          N/A     43  30  61 CALM      30.20F
PLENTYWOOD       N/A     45  16  31 W6        30.14S
POPLAR           N/A     37  19  48 CALM      30.18S
$$

REGIONAL REPORTS...DAKOTAS

CITY           SKY/WX    TMP DP  RH WIND       PRES   REMARKS
WILLISTON      CLEAR     30  18  60 CALM      30.17R
MINOT          CLEAR     40  21  46 SW10      30.14S
DICKINSON      CLEAR     38  20  48 W3        30.18S
BEACH          FAIR      34  19  55 SW8       30.21S WCI  27
CROSBY         FAIR      37  27  65 S10       30.14S WCI  30
WATFORD CITY   FAIR      32  18  55 SW7       30.16S WCI  26
BISMARCK       CLEAR     28  22  78 CALM      30.19S
GRAND FORKS    CLEAR     31  21  66 SW5       30.13S
FARGO          CLEAR     38  22  52 CALM      30.14S
BUFFALO SD       N/A     41  23  48 SW3       30.15F
RAPID CITY     PTCLDY    43  30  60 N12       30.20F
$$

REGIONAL REPORTS...WYOMING/IDAHO/WASHINGTON

CITY           SKY/WX    TMP DP  RH WIND       PRES   REMARKS
GILLETTE       MOCLDY    31  28  89 SW3       30.23F
SHERIDAN       CLEAR     28  25  88 S5        30.22F
BUFFALO WY     CLEAR     37  26  64 S7        30.25R WCI  32
CODY           PTCLDY    36  28  75 SW13      30.22F WCI  27
YELLOWSTONE LA   N/A     23  19  85 CALM      30.27S
IDAHO FALLS    CLEAR     38  26  62 CALM      30.18S
SALMON         CLEAR     34  21  60 CALM      30.23R
BOISE          CLEAR     44  32  62 SE7       30.17S
SPOKANE        CLEAR     45  31  58 CALM      30.23R
$$

REGIONAL REPORTS...ALBERTA

CITY           SKY/WX    TMP DP  RH WIND       PRES   REMARKS
EDMONTON       CLOUDY    39  32  75 W6        30.18R
CALGARY        CLEAR     43  25  49 NE12      30.21R
LETHBRIDGE     CLEAR     39  28  65 W15       30.17R WCI  31
MEDICINE HAT   CLEAR     39  30  70 SW7       30.12R
$$

REGIONAL REPORTS...SASKATCHEWAN

CITY           SKY/WX    TMP DP  RH WIND       PRES   REMARKS
SWIFT CURRENT  CLEAR     43  27  52 SW13      30.09R
REGINA         PTCLDY    39  28  65 SW10      30.05S
SASKATOON      CLEAR     39  30  70 N7        30.08R
$$



USA.gov is the U.S. government's official web portal to all federal, state and local government web resources and services.